GEFSNGP_500_meanwind_024.txt.gz
Wind_Speed
39 39 40 40 37 36 35 35 35 36 39 42 44 45 45 46 47 46 45 42 42 42 44 45 46 47 47 46 47 48 50 52 54 56 58 60 61 62 62 62 61 60 60 60
41 41 42 44 44 43 41 40 42 45 47 48 49 49 50 50 50 48 45 41 41 44 46 48 49 51 51 51 51 51 52 53 55 56 57 58 59 60 59 59 59 59 58 58
40 39 40 44 47 48 47 46 48 49 50 49 49 48 47 46 47 48 48 49 49 49 50 51 51 52 52 52 52 52 52 52 53 53 53 54 56 56 57 56 56 55 54 54
39 38 37 40 44 46 47 48 50 52 53 53 53 53 53 54 55 55 56 55 54 53 52 52 52 51 51 51 50 50 50 49 49 50 50 51 52 52 52 52 52 51 50 49
37 36 35 34 37 40 41 43 45 47 50 52 53 53 53 53 53 54 54 54 53 52 52 51 50 50 49 49 48 47 46 45 45 46 46 47 48 49 49 50 49 47 47 46
36 36 35 35 34 35 37 39 40 42 44 46 47 47 48 49 50 50 50 50 50 50 50 49 48 47 46 45 43 42 41 41 41 42 44 45 46 46 45 45 44 44 45 45
30 31 31 31 30 30 33 35 36 38 40 42 44 44 45 45 46 46 46 47 47 47 46 46 45 44 42 40 38 37 37 38 39 40 42 42 42 43 43 43 43 43 43 42
23 23 24 24 24 25 27 29 31 34 36 39 41 42 44 44 45 45 44 44 43 43 43 42 41 40 38 36 35 36 37 38 39 39 39 39 39 39 40 41 41 40 38 36
20 22 23 23 24 24 25 26 28 30 33 34 36 38 40 41 41 41 41 40 40 39 39 37 36 34 33 33 34 34 35 36 36 36 37 37 38 38 38 37 36 34 31 29
19 20 22 22 23 24 25 26 28 30 32 33 34 35 36 37 38 38 37 36 36 35 34 32 31 31 31 32 33 33 32 33 34 35 36 36 36 35 34 32 30 28 26 24
18 19 21 23 24 25 26 27 28 30 31 32 33 34 34 34 33 32 30 29 28 28 27 27 27 28 29 29 29 30 31 32 33 34 34 33 31 30 28 27 25 24 23 22
19 21 23 24 25 26 27 27 27 28 28 28 28 28 28 27 25 23 21 21 20 21 22 23 23 24 25 26 28 30 31 31 31 30 29 27 26 25 25 23 22 22 21 20
19 20 21 22 22 23 23 23 22 22 21 20 20 19 17 15 13 12 13 14 15 16 17 18 20 22 25 27 29 29 29 28 27 25 24 23 23 22 21 20 19 18 17 16
16 16 16 16 17 17 16 16 16 15 14 12 10 8 7 7 7 8 10 11 12 13 15 18 21 23 25 26 26 26 25 24 23 22 21 20 20 19 18 17 16 14 13 11
13 13 13 12 11 11 10 9 9 8 7 5 5 4 5 5 5 6 7 8 11 14 17 20 22 24 24 23 22 21 21 20 19 19 18 18 17 16 15 14 12 10 8 6
10 9 9 8 7 6 4 3 2 1 1 1 1 1 1 2 4 5 7 10 13 16 18 20 22 22 22 21 20 20 19 18 17 17 16 15 14 13 12 10 8 6 6 5
6 5 5 3 2 2 2 3 3 4 4 4 3 3 3 5 6 8 10 13 16 18 20 21 22 21 21 20 20 19 17 16 16 15 15 14 13 12 10 9 8 7 8 9
2 1 0 1 2 4 5 6 6 6 7 7 7 8 8 9 10 11 14 16 19 21 21 22 22 21 21 21 20 18 17 16 16 15 14 14 13 11 10 10 10 11 11 12
3 2 2 4 5 5 6 7 7 8 9 10 10 10 10 11 12 14 17 19 20 22 22 22 22 22 23 22 21 20 19 18 16 16 15 14 14 13 13 13 13 13 14 15
5 4 3 4 5 5 6 7 8 10 10 11 11 11 12 13 14 16 18 20 21 22 23 23 23 24 24 24 24 23 22 20 19 17 16 16 15 15 15 15 14 15 15 15
7 6 5 5 5 6 7 8 9 10 11 11 11 11 12 13 15 17 19 20 22 22 23 24 25 26 27 27 27 26 25 23 21 20 18 17 16 16 15 15 15 15 15 14
9 8 7 6 6 6 7 8 9 10 10 10 10 11 12 14 15 17 19 21 22 23 24 26 27 28 28 29 29 29 28 27 26 24 22 20 18 17 15 15 14 14 13 13
11 10 8 7 7 7 7 8 9 9 10 10 10 11 12 13 15 17 19 21 22 23 24 26 28 29 29 30 30 31 31 31 30 29 27 25 22 19 16 14 13 12 12 11
12 11 9 8 7 7 7 8 8 9 9 9 9 10 11 12 14 16 18 20 22 23 25 26 28 29 30 30 31 31 31 32 32 32 31 29 27 24 20 16 14 12 11 10
13 12 11 9 8 7 7 7 8 9 9 9 9 9 10 11 12 14 16 18 20 22 24 25 26 28 29 30 31 31 32 32 33 33 32 32 31 28 25 21 18 15 13 11
14 13 12 11 9 8 7 8 8 9 10 9 9 9 9 9 11 12 14 16 19 20 21 23 25 26 28 29 30 31 32 32 33 33 33 34 33 32 30 26 23 20 17 15
13 13 12 11 10 9 8 8 9 10 11 10 9 9 9 9 9 10 12 14 16 17 19 20 23 24 26 28 29 31 33 34 34 35 35 35 35 35 34 32 29 26 23 21

GEFSNGP_500_meanwind_030.txt.gz
Wind_Speed
30 32 33 33 34 36 37 37 37 37 38 40 41 42 42 42 41 40 39 39 40 41 42 44 46 48 50 51 53 53 53 53 53 53 52 52 53 54 55 56 57 58 58 59
34 35 37 38 38 38 39 40 40 40 41 42 43 43 43 42 41 41 40 40 42 44 46 48 50 51 53 54 55 55 55 53 52 51 51 52 52 53 54 55 55 55 55 56
37 38 38 40 40 40 41 40 40 40 41 43 43 42 41 39 40 40 41 42 45 47 49 51 52 53 54 54 54 54 52 51 51 50 50 50 51 52 52 52 53 53 53 53
36 38 39 38 37 36 36 38 39 39 38 39 39 39 39 39 39 40 42 44 46 47 49 50 52 53 53 53 53 52 50 50 49 49 49 49 49 49 49 50 49 50 50 50
31 33 35 35 34 34 34 34 34 34 35 36 37 38 39 39 39 40 41 43 45 47 49 50 51 51 51 51 50 49 48 48 47 47 47 46 46 47 47 47 47 48 49 49
26 27 28 29 29 30 32 32 32 33 34 34 36 37 38 39 40 41 42 44 45 46 48 49 49 49 49 48 47 47 46 46 45 45 44 44 45 45 45 46 46 47 47 47
21 22 24 24 24 25 25 26 28 30 32 33 35 36 37 38 40 41 42 43 44 45 46 46 46 46 46 45 45 45 44 43 42 42 42 42 43 43 44 44 45 45 45 45
16 17 18 19 20 22 22 23 25 26 28 29 31 32 34 35 36 38 39 40 41 41 42 42 43 43 42 42 41 41 40 40 40 40 40 41 41 42 42 43 43 42 42 40
14 14 14 15 17 18 20 21 22 24 26 27 29 30 31 32 33 35 36 37 38 39 40 40 40 39 38 37 36 36 36 37 38 38 39 39 39 40 40 40 39 38 36 34
13 13 14 14 16 18 19 21 22 24 25 27 28 29 30 31 32 33 35 36 36 36 36 35 34 32 32 32 32 33 34 35 35 36 37 37 38 37 37 35 33 31 30 28
12 13 13 14 16 18 19 20 22 24 25 26 27 28 29 30 30 30 30 30 29 29 28 27 26 26 27 29 30 30 31 33 34 35 35 35 34 32 31 29 27 26 25 23
13 14 15 16 17 18 19 20 21 22 23 23 23 23 23 23 22 22 22 22 21 20 21 21 23 24 26 27 28 30 31 31 31 31 31 30 29 27 26 24 23 22 21 19
14 14 15 15 16 16 17 17 18 18 17 17 17 16 15 16 16 15 15 15 16 18 19 20 22 23 25 26 27 27 28 28 27 27 26 25 24 23 21 20 19 17 15 13
13 13 13 12 12 12 12 12 13 12 12 12 11 10 10 11 11 11 12 13 15 16 17 19 21 22 23 24 24 25 24 24 23 22 22 21 19 18 16 15 13 12 10 8
12 12 11 11 10 10 9 8 7 6 6 5 5 5 6 7 7 8 10 12 14 16 18 19 20 21 22 22 22 22 21 20 19 19 18 17 15 14 12 10 9 7 6 6
11 11 9 8 7 6 4 4 3 3 3 2 3 3 4 5 6 8 10 13 15 16 18 19 20 20 21 21 20 19 18 17 17 16 15 14 12 10 9 8 7 8 8 10
9 8 5 3 3 2 2 3 3 4 3 4 4 4 6 7 8 10 13 14 15 17 18 19 20 20 20 20 19 18 17 16 15 14 13 12 11 11 10 9 10 11 12 13
6 4 2 1 1 2 2 3 4 4 4 5 7 7 8 10 11 13 14 15 16 18 19 20 20 21 20 20 20 19 18 16 14 13 13 12 12 12 13 13 14 15 15 16
4 2 1 1 2 2 3 4 4 5 7 8 9 10 11 12 13 14 15 17 18 20 21 21 22 22 21 21 21 20 19 17 16 14 14 14 14 14 15 15 16 16 16 15
4 3 2 3 3 3 3 4 5 7 8 9 10 11 12 13 14 15 17 18 20 21 22 23 23 24 24 23 23 23 22 20 18 16 15 15 16 16 16 16 16 16 15 15
5 5 4 4 4 4 4 5 7 8 9 10 10 11 12 13 15 16 18 19 21 22 23 23 24 25 25 25 26 25 24 23 21 19 17 16 16 16 16 16 15 15 14 13
7 6 6 5 5 6 6 7 8 9 9 9 10 11 12 14 15 17 18 20 22 22 23 24 25 25 26 27 27 27 27 25 23 21 19 17 16 15 15 14 14 14 13 13
9 8 7 7 7 7 7 8 8 9 9 9 9 10 12 14 15 16 18 20 21 22 23 24 25 26 27 28 28 28 28 27 25 22 20 18 16 15 14 14 13 13 13 13
11 10 9 9 9 9 9 9 9 9 9 9 9 10 11 13 14 16 17 19 20 22 23 25 25 26 27 28 29 29 29 28 26 24 22 20 18 16 15 14 14 14 14 14
13 13 12 11 11 10 10 10 10 10 10 9 8 9 10 12 13 15 17 18 19 21 23 24 25 26 27 28 29 29 30 30 28 26 24 22 20 19 17 16 16 15 16 16
14 15 14 13 12 12 12 11 11 11 10 9 8 9 9 10 11 13 15 16 18 20 21 23 24 25 26 28 29 30 31 31 31 30 28 26 24 22 20 19 19 18 18 18
16 16 16 15 14 13 12 12 12 12 11 10 9 8 8 9 9 11 12 14 16 18 19 21 22 24 25 27 28 30 31 32 32 32 31 30 29 28 26 24 23 21 20 20

GEFSNGP_500_meanwind_036.txt.gz
Wind_Speed
21 22 23 25 27 28 30 31 30 32 35 35 34 34 35 35 36 38 39 40 41 41 42 43 44 45 47 47 48 48 48 49 49 50 51 52 53 53 53 54 54 53 53 53
23 24 25 26 27 29 30 32 34 35 37 37 37 37 38 39 40 41 42 42 42 43 44 44 44 44 45 45 45 45 46 47 49 51 52 53 53 53 53 54 53 53 53 53
22 24 25 27 29 29 31 32 33 35 37 38 39 40 40 41 41 41 42 41 41 42 42 42 43 44 43 44 44 45 46 47 49 51 52 53 53 53 53 52 52 52 52 52
20 22 24 28 28 29 31 32 34 36 38 38 39 40 40 39 39 39 39 38 38 38 39 40 41 41 42 43 44 46 47 49 50 50 51 51 51 51 51 51 51 51 51 51
16 19 21 24 24 26 28 30 30 32 32 33 34 35 36 35 35 36 36 36 36 36 37 38 40 41 42 44 46 47 48 48 49 49 49 49 49 49 49 49 49 49 49 49
14 16 19 20 20 21 23 26 26 27 28 29 29 31 31 31 31 32 33 34 36 37 39 40 41 43 44 45 45 46 46 47 47 48 48 48 47 47 47 47 47 47 47 47
12 14 17 16 16 17 20 22 22 23 23 24 26 28 29 30 30 32 33 34 36 38 39 40 40 41 42 43 44 44 45 45 45 45 45 45 45 44 44 45 45 45 44 44
11 13 14 13 14 16 18 19 20 20 21 22 23 24 26 28 29 31 32 33 35 36 37 38 39 40 40 41 41 42 42 42 42 41 41 41 41 41 41 41 41 41 40 39
10 11 11 11 12 13 15 17 18 19 20 21 22 23 25 27 28 30 31 33 34 35 35 36 37 37 37 37 38 38 38 38 38 38 38 38 38 38 39 38 38 37 36 34
10 10 11 11 10 12 14 15 17 18 19 21 22 24 25 26 27 28 29 31 31 32 32 32 33 33 33 33 34 34 34 35 35 36 36 36 35 35 34 33 32 30 29 27
10 11 11 12 12 13 15 16 17 18 19 21 22 23 24 24 24 25 25 26 26 27 27 27 28 28 29 30 31 32 32 33 33 33 32 31 31 30 29 28 26 24 23 21
9 10 11 12 14 14 15 15 16 17 18 19 19 19 19 19 19 20 21 21 22 22 23 24 25 26 28 28 29 29 29 28 28 27 27 27 26 25 23 21 19 17 16 14
9 10 10 11 12 12 12 12 13 14 14 15 15 15 15 15 16 16 16 17 18 19 21 22 23 24 25 25 25 25 24 24 23 23 22 21 20 18 16 14 12 11 10 8
9 9 9 10 10 10 10 10 10 11 11 10 10 10 11 11 11 12 14 15 16 18 19 20 21 22 22 22 22 21 20 19 19 18 18 16 14 12 10 8 6 5 4 4
9 9 9 9 9 8 7 7 7 7 6 6 6 6 7 8 9 11 12 14 15 17 18 18 19 19 20 20 19 18 17 17 15 15 13 11 9 8 6 6 5 6 6 7
8 8 8 7 6 5 4 4 4 4 3 3 4 4 5 7 9 10 12 13 14 15 16 17 17 18 18 18 17 16 15 14 12 11 10 9 8 7 7 7 8 9 10 11
7 6 5 4 4 3 2 2 2 2 2 2 3 4 6 7 9 10 12 13 14 15 16 17 17 17 17 17 16 15 14 12 11 10 9 9 9 9 10 11 12 12 13 13
6 5 3 3 2 1 0 1 2 2 2 3 4 5 6 8 10 11 12 13 15 16 17 18 18 18 18 18 17 15 14 12 11 10 10 10 11 11 12 13 13 13 14 14
5 4 3 3 2 1 1 2 2 3 3 3 4 6 7 9 11 12 13 14 15 16 17 18 19 19 19 19 17 16 14 13 11 11 11 11 11 12 12 13 13 13 13 12
5 4 3 3 3 3 2 3 3 3 4 4 5 7 8 9 11 12 13 14 15 16 18 19 20 20 20 19 17 16 14 13 12 11 11 11 11 11 12 12 12 12 11 11
5 5 4 4 4 4 4 4 5 4 4 5 6 7 9 10 11 12 13 14 16 17 18 20 21 21 20 19 17 16 14 13 11 11 10 10 10 10 10 10 10 10 10 10
6 6 6 6 6 6 6 6 6 5 5 5 6 7 9 10 11 13 14 15 16 17 19 20 21 21 21 19 18 17 15 13 11 10 10 9 9 9 9 9 9 10 10 10
7 7 8 8 7 7 7 7 7 6 5 5 6 7 8 9 11 12 13 14 16 17 19 20 21 22 22 21 19 17 16 14 12 11 11 10 10 9 9 9 10 10 10 11
9 9 10 9 9 9 9 8 8 7 6 5 5 6 7 8 10 12 13 15 16 17 19 20 21 22 22 22 21 20 18 16 14 13 13 12 11 11 11 11 11 11 12 12
11 11 11 11 11 11 10 10 9 8 7 6 5 5 6 7 9 11 13 15 16 18 19 21 22 23 23 23 23 23 21 19 17 16 15 14 14 13 13 13 13 13 14 14
13 13 13 13 13 13 12 12 11 9 9 7 6 4 4 5 7 9 11 13 15 17 19 20 22 23 24 24 23 23 23 22 20 19 18 17 17 16 16 16 16 15 15 15
15 15 15 15 14 14 14 13 12 11 10 9 7 5 4 4 6 7 9 11 13 15 17 19 21 22 24 24 24 24 24 24 23 22 22 21 20 19 19 19 18 18 17 17

GEFSNGP_500_meanwind_042.txt.gz
Wind_Speed
15 14 15 17 19 21 23 25 26 30 33 36 37 37 35 33 31 31 31 32 35 37 39 41 43 44 46 47 49 50 51 52 52 53 53 53 54 54 55 56 56 57 57 57
14 14 15 15 17 16 19 22 26 30 33 34 36 34 34 32 30 30 32 35 37 39 41 44 45 45 47 48 49 50 50 51 51 51 51 52 53 54 55 55 55 55 55 55
13 15 16 18 21 23 25 27 29 30 33 36 38 40 38 35 34 33 34 36 37 39 41 41 43 44 45 46 47 47 47 47 47 48 50 50 50 51 52 53 53 54 54 54
13 15 17 21 23 24 27 29 29 30 32 36 39 39 39 38 38 36 35 35 36 36 37 38 39 39 39 40 41 41 42 44 45 45 46 48 49 50 51 52 52 52 52 52
10 12 17 21 23 24 26 29 29 32 34 36 37 39 39 39 39 38 37 37 38 36 36 36 36 36 38 39 40 41 42 44 45 46 47 47 48 48 49 49 50 50 50 50
11 14 19 20 21 21 23 27 27 29 30 32 33 34 35 35 35 35 35 36 35 34 34 35 35 37 38 39 40 42 43 43 44 45 45 46 46 47 47 47 47 47 47 47
12 15 18 20 21 21 23 24 24 24 25 27 28 28 27 27 27 28 29 29 30 31 33 35 36 38 39 40 41 41 41 42 43 43 43 43 43 43 43 43 43 43 43 43
13 15 16 16 17 18 19 20 21 22 23 23 23 24 24 24 25 26 26 28 29 31 32 33 34 35 36 37 38 39 39 40 40 40 39 39 39 39 39 39 39 39 38 38
15 15 15 15 15 16 17 18 18 19 20 20 21 21 21 22 23 25 27 28 29 30 30 31 32 33 34 35 36 36 36 36 36 36 36 36 36 36 36 35 35 34 33 32
16 15 15 15 15 15 15 16 17 17 18 19 19 20 21 22 23 24 25 26 26 27 28 29 30 31 32 32 32 32 32 33 33 32 33 33 32 32 32 31 30 28 27 25
16 15 15 15 15 15 16 16 17 17 17 17 18 18 19 20 21 21 22 23 24 26 27 28 28 28 29 30 30 30 30 30 30 30 29 29 28 27 26 25 23 22 21 19
16 16 16 16 16 16 15 15 15 15 15 16 17 17 18 18 19 20 20 22 23 24 24 25 25 26 27 28 28 28 28 27 27 26 25 24 22 21 20 19 18 18 16 15
16 16 16 16 15 15 14 14 13 13 13 14 15 15 15 16 17 18 19 20 21 21 22 23 24 25 25 25 26 26 25 23 22 22 20 19 17 16 15 15 15 14 13 11
15 15 15 14 14 13 12 12 11 11 11 12 12 13 13 14 16 17 18 19 19 20 21 21 22 23 23 23 23 22 20 18 17 16 16 15 14 13 12 12 12 11 11 11
15 14 13 13 12 12 10 9 9 9 9 10 11 11 12 14 15 16 17 17 18 19 19 20 20 20 20 20 19 18 17 15 14 13 13 13 13 12 11 11 11 11 11 11
14 13 12 11 11 9 8 8 8 8 8 8 9 11 12 13 14 15 15 16 17 17 18 19 19 19 18 17 15 15 14 13 13 12 12 12 12 12 12 12 12 12 12 12
13 12 11 10 9 8 7 7 7 6 6 7 9 10 11 12 13 14 14 15 16 17 18 18 18 18 16 15 14 13 12 12 12 12 11 11 12 12 12 12 12 13 13 13
13 12 11 9 8 7 6 5 5 5 6 7 8 9 10 12 13 13 14 14 15 17 18 18 18 17 16 15 13 12 11 11 11 10 10 11 11 12 12 12 12 13 13 13
13 11 10 9 7 6 6 5 4 4 5 6 7 9 10 12 13 13 14 14 15 17 18 18 17 16 16 14 13 11 10 9 10 10 10 10 11 11 11 11 12 12 12 12
12 11 10 8 7 6 5 4 3 3 4 5 7 9 10 11 13 14 14 15 16 18 19 19 17 16 15 14 12 11 9 9 8 8 9 9 10 10 10 10 11 11 11 11
12 11 9 8 6 5 5 3 2 1 3 5 7 9 10 11 13 14 15 16 17 18 19 18 18 17 15 14 12 10 9 9 8 8 8 8 9 9 9 9 10 10 10 10
12 11 9 7 6 5 5 4 2 1 2 4 6 8 10 11 13 14 15 17 17 18 19 19 19 19 18 16 13 11 10 10 9 8 8 8 8 8 8 9 9 10 10 10
12 10 9 7 7 6 5 4 3 2 1 3 5 7 9 11 13 14 16 17 18 19 20 20 20 20 20 17 15 13 12 11 10 9 8 8 8 8 8 9 9 9 10 10
12 10 9 8 7 7 6 5 5 3 1 1 3 5 7 10 12 13 15 17 19 20 20 20 21 21 20 18 17 17 15 13 12 11 10 10 10 9 9 9 10 10 10 10
12 10 9 9 8 8 7 7 6 5 3 1 1 4 6 8 10 12 14 16 18 19 20 20 21 21 20 21 20 19 18 17 16 15 14 13 12 12 11 11 10 10 11 11
12 11 10 10 10 9 9 8 8 7 5 3 1 1 4 6 8 10 12 15 16 17 18 19 20 21 22 23 22 21 20 19 18 17 17 16 15 14 13 13 13 13 13 13
13 13 12 11 11 10 10 10 9 8 7 6 4 1 1 4 6 8 10 12 14 16 17 19 20 21 22 22 21 21 20 20 19 19 18 18 17 17 16 16 16 16 16 16

GEFSNGP_500_meanwind_048.txt.gz
Wind_Speed
17 20 23 24 26 28 29 30 31 32 36 39 39 39 39 39 37 36 33 33 34 35 36 36 37 38 40 42 44 46 48 50 52 53 55 56 57 58 58 59 59 58 58 57
15 17 19 21 22 25 27 29 30 31 33 35 36 37 37 37 36 34 33 33 33 33 33 32 33 35 38 39 41 42 44 47 48 50 51 51 52 53 53 53 53 53 53 53
14 16 16 18 17 19 25 27 27 28 28 30 30 31 31 31 31 31 32 33 32 33 34 34 34 35 36 38 40 41 42 44 44 43 43 45 46 47 47 48 49 50 50 51
10 13 15 14 14 14 17 21 24 25 26 25 26 26 27 27 29 30 30 29 29 30 30 31 32 33 35 36 37 38 40 41 42 42 43 44 44 44 45 46 47 48 49 50
7 10 11 13 14 14 13 16 18 19 20 22 22 24 25 26 26 27 28 29 28 27 28 29 29 30 31 33 34 35 37 38 39 41 42 43 43 44 45 45 46 46 47 47
7 8 9 11 13 15 16 16 16 17 18 18 20 20 21 22 23 24 24 24 24 25 26 26 27 28 30 32 33 34 35 36 37 38 39 40 41 41 42 42 43 43 43 43
8 8 9 10 12 14 15 15 15 15 15 16 17 18 18 18 19 19 20 20 21 23 23 24 25 27 28 30 31 32 32 33 34 35 36 37 37 37 38 39 39 39 38 38
10 10 10 11 11 12 13 14 14 14 15 15 15 16 16 16 17 17 18 19 20 21 22 23 24 25 26 27 28 28 29 30 31 32 33 34 34 34 35 35 35 33 33 32
11 11 11 11 11 12 12 12 13 13 13 13 14 14 15 16 17 18 18 19 20 21 22 23 24 24 25 25 25 26 26 27 28 29 30 30 30 31 31 31 29 28 27 27
12 11 11 11 11 11 11 11 12 12 12 12 12 13 14 14 15 15 16 17 19 20 21 21 22 23 23 23 24 24 25 25 26 27 27 27 26 26 26 25 23 23 22 22
14 13 12 12 11 11 10 10 10 10 11 11 11 12 12 12 13 14 15 16 17 18 18 19 20 20 21 21 21 22 22 22 23 23 22 22 22 21 20 20 20 19 19 19
15 15 14 12 12 11 10 10 9 8 8 9 9 9 10 11 12 13 15 15 16 16 17 18 19 19 19 20 19 19 18 18 19 19 18 17 17 17 17 17 17 16 16 15
16 16 14 13 11 10 10 9 8 7 8 8 8 9 10 12 13 14 15 15 16 16 17 17 18 18 19 18 17 16 15 15 16 16 15 15 15 15 15 15 15 14 13 12
16 15 14 12 11 10 9 8 7 7 8 8 8 10 11 12 13 14 15 15 15 15 16 17 17 18 17 16 15 14 13 13 13 14 14 13 13 14 14 14 13 13 12 12
17 16 14 12 10 9 8 8 7 7 8 8 9 10 12 12 14 15 15 15 14 15 16 17 17 17 16 15 13 12 12 11 12 12 13 12 12 13 13 12 12 12 12 12
17 16 14 12 10 9 8 7 7 7 8 8 9 10 12 13 14 15 15 15 16 17 18 17 17 16 15 14 12 11 10 10 10 11 11 11 11 12 12 12 12 12 12 12
17 16 14 12 10 9 8 7 7 7 8 8 9 10 12 13 14 15 16 17 17 17 17 17 16 15 14 12 11 10 9 9 9 9 10 10 11 11 11 11 11 11 11 11
17 16 14 12 10 8 7 7 6 7 7 8 9 10 11 13 14 15 16 17 17 17 17 17 16 14 13 11 9 8 8 8 8 8 9 9 10 10 11 11 11 11 11 11
17 16 14 12 9 8 6 6 6 6 7 7 9 10 12 14 15 16 16 17 17 17 17 17 16 15 13 11 9 8 7 7 7 7 7 8 9 9 10 10 10 10 10 10
17 16 14 11 9 7 6 5 5 5 6 7 8 10 12 14 15 16 17 17 17 17 17 17 17 16 14 12 10 9 8 7 6 6 6 7 8 8 8 9 9 9 9 9
16 15 13 11 8 7 5 5 4 4 5 6 8 10 11 13 15 16 17 18 17 18 18 18 18 17 15 13 11 10 8 7 6 6 6 6 7 7 7 8 8 8 8 8
16 15 13 10 8 6 5 4 4 3 4 6 7 9 11 13 15 16 17 18 18 18 18 19 19 18 16 14 13 11 9 8 7 6 6 5 6 6 7 7 8 8 8 8
15 14 12 10 7 5 4 4 3 3 4 5 6 8 10 12 14 15 17 18 18 18 19 20 20 19 18 17 15 13 11 10 9 8 7 7 6 7 7 8 8 8 8 8
15 13 11 9 7 5 4 3 3 3 3 3 5 7 9 11 13 15 16 18 18 18 19 20 20 19 19 18 17 16 14 13 11 11 10 9 8 8 8 8 8 8 9 9
14 13 11 9 7 5 4 4 3 3 3 2 3 5 7 9 11 13 16 17 18 18 19 19 20 19 19 18 18 18 17 15 14 13 13 12 11 10 10 10 11 11 11 11
14 12 11 9 7 6 5 4 4 4 4 3 2 3 5 7 9 12 14 16 17 17 17 18 18 18 19 19 19 18 17 16 16 15 15 14 14 13 13 13 13 13 13 13
14 12 11 9 8 7 6 6 5 5 5 5 4 3 3 5 7 9 12 14 15 16 16 15 16 17 18 19 19 19 18 17 16 16 15 15 15 15 15 15 14 15 15 15

GEFSNGP_500_meanwind_054.txt.gz
Wind_Speed
13 14 16 17 20 21 22 24 26 28 29 31 32 33 34 34 35 36 37 37 37 37 37 36 35 36 35 35 36 37 38 38 38 39 41 41 43 44 45 47 48 50 52 53
9 11 14 17 18 19 21 23 25 27 29 29 30 31 32 32 32 32 33 34 33 32 32 33 34 33 33 33 33 34 35 36 37 39 41 41 43 44 45 46 48 50 51 52
8 10 11 13 16 19 20 22 24 25 27 28 29 29 30 30 29 28 28 28 29 29 28 30 30 30 29 29 30 31 33 35 36 37 39 41 42 43 44 46 47 48 49 50
6 8 10 11 13 15 17 19 20 21 23 25 26 26 27 27 27 26 25 25 26 27 27 27 27 28 28 28 29 30 31 33 35 36 37 39 40 42 43 45 45 46 47 48
6 6 7 9 11 12 13 14 15 16 18 19 21 21 22 22 21 21 21 21 22 22 23 24 24 25 26 27 29 30 32 33 34 35 37 38 39 41 42 42 43 44 45 46
7 7 8 8 10 11 12 13 13 14 15 15 16 17 19 18 18 18 19 19 19 20 21 22 23 24 26 28 29 30 30 31 33 34 35 36 37 38 38 39 40 42 43 44
9 9 9 9 10 11 12 12 12 13 13 13 14 15 15 16 16 16 16 17 17 18 20 21 22 24 25 26 27 28 29 30 31 32 33 34 35 36 37 37 38 39 39 39
10 11 11 11 11 11 12 12 12 12 12 12 12 13 14 14 14 14 15 15 17 18 19 20 22 23 23 24 25 26 27 28 29 30 31 32 32 32 32 33 34 34 33 32
12 12 12 12 12 12 12 11 11 11 10 11 11 11 12 12 12 13 14 15 16 17 19 20 20 21 22 23 24 25 26 27 27 27 28 27 27 28 28 29 29 28 27 26
13 13 13 13 13 12 11 11 10 10 9 9 9 10 10 10 11 12 13 14 16 17 18 19 20 20 21 22 23 23 23 23 23 23 23 23 23 24 24 25 25 24 23 22
14 14 14 13 13 12 11 10 9 8 8 8 8 8 8 9 9 11 12 14 15 17 17 18 18 18 19 19 20 20 19 19 19 19 20 20 20 20 21 21 21 20 19 18
15 15 14 13 13 12 10 9 7 7 7 7 7 7 8 8 10 11 13 14 16 16 16 16 16 17 18 18 18 18 17 17 17 17 17 18 18 18 18 18 18 17 16 15
16 16 15 14 12 11 10 9 7 7 6 7 7 7 8 9 11 12 14 15 16 15 16 17 18 17 17 17 17 16 15 15 15 15 15 15 16 16 16 16 16 14 13 13
17 17 15 15 13 11 10 8 7 7 7 7 7 7 9 10 12 13 14 15 15 16 16 17 17 17 17 16 16 15 14 13 12 12 13 14 14 15 14 14 13 13 12 11
17 17 16 15 13 12 10 9 8 7 7 7 8 8 10 12 13 14 14 14 15 15 15 16 16 15 15 14 13 12 12 11 10 11 11 12 13 13 13 12 12 11 11 10
18 17 16 15 14 12 10 9 8 7 7 8 9 10 12 13 14 15 14 15 15 15 15 16 16 15 14 12 11 10 10 9 9 10 10 11 12 12 11 11 11 10 10 10
18 17 17 16 14 12 10 9 8 8 8 8 9 11 13 14 15 15 14 15 15 15 16 16 15 14 13 12 11 9 8 8 9 9 9 10 10 11 10 10 10 9 9 9
18 18 17 16 14 12 10 9 8 8 8 9 10 12 13 15 16 16 15 15 16 16 16 16 16 14 13 12 10 9 8 7 8 8 8 8 9 9 9 9 9 9 9 9
17 18 17 16 14 12 10 9 8 8 8 9 10 12 13 15 16 16 15 16 16 16 17 17 16 15 13 11 10 8 7 7 7 7 7 7 7 8 8 9 9 8 8 8
16 17 17 16 14 12 10 9 8 8 8 9 10 12 13 15 16 17 16 16 17 17 17 17 17 16 14 12 10 9 8 7 7 6 6 6 6 7 7 8 8 8 8 8
15 16 17 16 14 12 10 9 8 7 8 8 10 11 13 15 16 17 17 17 18 18 18 18 18 17 16 13 12 10 9 8 7 6 6 6 6 7 7 7 8 8 8 8
14 15 16 15 14 12 10 8 7 7 7 8 9 11 13 14 16 17 18 18 18 18 19 19 19 19 17 16 14 12 10 10 9 8 7 7 7 7 7 7 7 8 8 8
13 14 15 15 13 11 10 8 7 7 7 7 8 10 11 13 15 16 17 18 18 18 19 19 20 20 19 17 16 14 13 12 11 10 9 9 8 8 8 8 8 8 8 9
13 13 14 14 13 11 9 8 7 6 6 6 7 8 10 12 14 15 16 17 18 18 18 19 20 20 19 18 17 16 15 14 13 12 11 11 11 11 11 10 10 10 10 10
13 13 13 13 12 10 9 8 7 6 6 5 6 7 8 10 12 14 16 17 17 17 18 19 19 19 19 19 18 17 16 16 15 14 13 13 13 13 13 13 13 12 12 12
13 13 12 12 12 11 9 8 7 6 6 5 5 6 7 9 10 12 13 15 16 16 17 17 18 19 19 19 18 17 16 16 15 15 15 14 14 14 14 14 14 14 13 13
14 13 12 12 11 11 10 8 8 7 6 6 6 6 6 7 8 9 11 12 14 15 15 16 17 17 17 18 18 18 17 17 16 15 15 15 14 14 14 14 14 13 13 13

GEFSNGP_500_meanwind_060.txt.gz
Wind_Speed
9 9 11 13 15 17 18 19 21 23 24 24 25 26 27 28 28 30 31 32 33 34 35 36 36 37 37 38 38 38 38 39 39 40 41 42 42 42 43 44 44 45 46 48
7 9 10 12 14 16 17 19 21 22 23 24 25 25 25 26 27 28 29 30 31 31 31 32 32 33 33 34 35 36 37 37 37 38 39 40 40 41 41 43 44 45 45 46
5 7 8 11 12 14 16 18 20 21 22 23 24 25 25 26 26 27 27 27 27 27 28 28 28 29 30 31 31 32 33 33 34 35 36 37 38 39 40 40 41 42 43 44
4 6 8 9 11 13 15 17 18 20 21 22 23 23 23 24 24 24 25 25 25 25 26 26 27 28 29 29 30 30 30 31 32 33 34 35 36 37 37 38 39 40 41 42
2 5 7 8 10 11 13 15 17 18 18 18 19 20 21 21 20 21 21 21 22 22 23 24 24 25 26 26 27 28 29 29 30 31 32 33 34 35 35 36 36 37 38 39
3 4 5 7 8 9 11 12 13 14 15 15 16 17 17 17 18 19 19 20 20 20 21 21 22 23 23 24 25 26 27 28 29 29 30 31 32 33 33 34 34 35 35 36
5 5 5 6 7 8 9 11 12 12 12 12 14 15 15 15 15 16 16 17 18 18 19 19 20 22 22 23 24 25 25 26 26 27 28 28 29 28 29 29 30 30 31 31
6 6 6 7 7 8 9 10 10 10 10 10 11 12 12 12 12 13 13 14 15 16 17 18 19 21 22 23 24 24 24 24 25 24 24 24 24 24 24 25 25 26 26 25
8 8 8 8 8 8 8 8 8 8 8 8 8 8 9 10 10 10 11 12 13 15 16 18 19 21 21 22 22 22 22 22 22 22 21 20 20 21 21 22 22 22 22 21
9 9 9 9 9 9 8 7 6 6 5 5 5 6 7 7 7 8 10 11 13 15 16 17 19 20 21 21 21 21 21 21 20 19 18 18 19 18 19 19 19 19 18 17
11 11 10 10 10 9 7 7 6 6 5 5 5 5 6 6 7 8 10 11 13 14 15 17 17 18 19 19 19 19 18 18 17 17 16 16 16 16 17 16 16 16 14 14
11 11 11 11 11 10 8 7 7 6 6 5 5 5 6 7 8 9 10 12 13 14 15 15 16 17 17 17 17 17 17 16 15 14 14 14 14 14 14 14 14 13 12 12
12 12 12 12 11 10 9 8 7 7 6 6 6 6 7 8 9 10 11 12 13 14 14 14 15 15 14 14 14 14 14 13 13 12 11 11 12 12 12 11 11 11 10 10
12 12 12 13 12 11 10 9 8 7 7 6 6 7 8 9 10 11 11 12 13 13 14 14 14 14 13 13 12 11 11 10 9 9 9 9 10 10 10 9 9 9 9 8
11 12 13 13 12 11 10 9 8 8 7 7 7 8 9 11 11 11 11 12 13 14 14 14 14 13 13 12 11 10 9 8 8 7 7 7 8 8 8 8 8 8 7 7
11 12 13 13 13 11 10 10 9 9 8 8 8 9 11 11 12 12 13 14 14 14 14 14 14 13 13 11 10 8 8 7 6 6 6 6 7 7 7 7 6 6 6 5
11 12 13 13 13 12 11 10 9 9 9 9 9 10 11 12 13 14 14 15 15 14 14 15 14 14 13 11 9 8 7 6 5 5 5 5 6 6 6 6 6 5 4 4
10 12 13 13 13 12 11 10 10 9 9 9 10 11 13 13 14 15 15 15 15 15 15 16 15 14 13 10 8 7 6 5 4 4 4 4 4 5 5 5 5 4 4 4
10 11 12 13 13 12 11 10 10 9 9 9 10 12 14 14 15 16 16 16 17 17 17 16 16 14 12 10 7 6 5 4 4 4 3 3 4 4 4 4 4 4 4 4
9 10 12 13 13 12 11 10 10 9 9 10 11 12 14 15 16 16 17 18 18 18 18 17 16 15 13 11 9 8 6 5 4 4 4 3 4 4 4 4 4 4 4 4
8 10 11 12 12 12 11 10 10 9 9 10 11 12 13 15 16 17 18 18 19 18 18 18 17 16 15 13 12 10 9 8 7 6 5 4 4 4 4 4 4 4 5 5
7 9 10 11 12 12 11 10 9 9 9 9 10 11 13 14 16 17 17 18 19 19 19 18 18 17 16 14 13 11 10 9 8 7 7 6 6 5 5 5 5 5 5 5
7 8 10 11 11 11 11 10 9 9 9 9 9 10 12 13 15 16 16 17 18 19 19 19 19 18 17 16 14 13 12 10 10 9 8 8 8 7 7 7 7 7 7 7
7 8 9 10 11 11 11 10 9 9 8 9 9 9 10 12 13 14 15 16 17 17 18 18 18 18 17 17 15 14 13 12 11 10 10 9 9 9 9 9 9 9 9 9
8 9 9 10 10 11 10 10 9 9 8 8 8 8 9 10 11 13 14 15 16 16 16 17 17 17 17 17 16 15 14 13 12 12 11 10 10 9 9 9 9 9 9 9
10 10 10 10 10 10 10 10 9 9 8 8 8 8 8 8 9 11 12 13 14 15 15 16 16 16 16 16 16 15 14 14 13 12 12 11 11 10 10 9 9 9 9 9
13 12 11 11 11 11 11 10 10 9 8 8 8 7 7 7 7 8 9 11 11 13 14 14 14 15 15 15 15 15 15 14 13 13 12 12 11 10 10 9 9 9 9 9